Middle Georgia Regional Airport Airport (MCN)

 

Airport Diagram
Current Weather/Forecast (VFR Conditions)
METAR KMCN 050153Z AUTO 14003KT 10SM CLR 26/22 A2996 RMK AO2 SLP138 T02560222
TAF KMCN 042341Z 0500/0524 VRB04KT P6SM VCSH FEW070 FM050100 00000KT P6SM FEW100 FM051500 11003KT P6SM FEW035 FM051800 15004KT P6SM VCSH SCT060 PROB30 0518/0524 VRB10G20KT 4SM -TSRA BKN050CB

All Charts
General
Chart Name Download
AIRPORT DIAGRAM
TAKEOFF MINIMUMS
ALTERNATE MINIMUMS

Approaches
Chart Name Download
ILS OR LOC RWY 05
ILS RWY 05 (SA CAT I - II)
RNAV (GPS) RWY 05
RNAV (GPS) RWY 14
RNAV (GPS) RWY 23
RNAV (GPS) RWY 32
VOR RWY 14
VOR RWY 23


Inbound Traffic (Arrivals)

No inbound traffic.


Outbound Traffic (Departures)

No outbound traffic.